| time (UTC) | temp F | wind direction | speed knots | gust knots | rain 1hr in | rain 24hr in | rain mn in | humidity % | barometer mb |
| 20260508052833 | 48 | 30 | 7.0 | 0.0 | 0.00 | 0.00 | 0.00 | 71 | 1019.0 |
| 20260508051649 | 48 | 30 | 7.0 | 0.0 | 0.00 | 0.00 | 0.00 | 71 | 1019.0 |
| 20260508050326 | 48 | 30 | 7.0 | 0.0 | 0.00 | 0.00 | 0.00 | 71 | 1019.0 |
| 20260508045147 | 48 | 30 | 7.0 | 0.0 | 0.00 | 0.00 | 0.00 | 71 | 1019.0 |
| 20260508043831 | 48 | 30 | 7.0 | 0.0 | 0.00 | 0.00 | 0.00 | 71 | 1019.0 |
| 20260508042512 | 46 | 20 | 7.0 | 0.0 | 0.00 | 0.00 | 0.00 | 81 | 1019.0 |
| 20260508041330 | 46 | 20 | 7.0 | 0.0 | 0.00 | 0.00 | 0.00 | 81 | 1019.0 |
| 20260508040149 | 46 | 10 | 5.2 | 0.0 | 0.00 | 0.00 | 0.00 | 81 | 1019.0 |
| 20260508035013 | 46 | 10 | 5.2 | 0.0 | 0.00 | 0.00 | 0.00 | 81 | 1019.0 |
| 20260508033834 | 46 | 10 | 5.2 | 0.0 | 0.00 | 0.00 | 0.00 | 81 | 1019.0 |
| 20260508032653 | 45 | 350 | 3.5 | 0.0 | 0.00 | 0.00 | 0.00 | 87 | 1019.0 |
| 20260508031504 | 45 | 350 | 3.5 | 0.0 | 0.00 | 0.00 | 0.00 | 87 | 1019.0 |
| 20260508030324 | 45 | 350 | 3.5 | 0.0 | 0.00 | 0.00 | 0.00 | 87 | 1019.0 |
| 20260508025126 | 45 | 350 | 3.5 | 0.0 | 0.00 | 0.00 | 0.00 | 87 | 1019.0 |
| 20260508023946 | 45 | 350 | 3.5 | 0.0 | 0.00 | 0.00 | 0.00 | 87 | 1019.0 |
| 20260508022805 | 45 | 340 | 5.2 | 0.0 | 0.00 | 0.00 | 0.00 | 81 | 1019.0 |
| 20260508021628 | 45 | 340 | 5.2 | 0.0 | 0.00 | 0.00 | 0.00 | 81 | 1019.0 |
| 20260508020450 | 45 | 340 | 5.2 | 0.0 | 0.00 | 0.00 | 0.00 | 81 | 1019.0 |
| 20260508015308 | 45 | 330 | 5.2 | 0.0 | 0.00 | 0.00 | 0.00 | 81 | 1019.0 |
| 20260508014129 | 45 | 330 | 5.2 | 0.0 | 0.00 | 0.00 | 0.00 | 81 | 1019.0 |
| 20260508012944 | 45 | 350 | 5.2 | 0.0 | 0.00 | 0.00 | 0.00 | 81 | 1019.0 |
| 20260508011812 | 45 | 350 | 5.2 | 0.0 | 0.00 | 0.00 | 0.00 | 81 | 1019.0 |
| 20260508010614 | 45 | 350 | 5.2 | 0.0 | 0.00 | 0.00 | 0.00 | 81 | 1019.0 |
| 20260508005436 | 45 | 340 | 3.5 | 0.0 | 0.00 | 0.00 | 0.00 | 81 | 1019.0 |
| 20260508004302 | 45 | 340 | 3.5 | 0.0 | 0.00 | 0.00 | 0.00 | 81 | 1019.0 |
| 20260508003120 | 45 | 330 | 3.5 | 0.0 | 0.00 | 0.00 | 0.00 | 81 | 1019.0 |
| 20260508001941 | 45 | 330 | 3.5 | 0.0 | 0.00 | 0.00 | 0.00 | 81 | 1019.0 |
| 20260508000810 | 45 | 330 | 3.5 | 0.0 | 0.00 | 0.00 | 0.00 | 81 | 1019.0 |
| 20260507235631 | 45 | 330 | 3.5 | 0.0 | 0.00 | 0.00 | 0.00 | 81 | 1018.0 |
| 20260507234315 | 45 | 330 | 3.5 | 0.0 | 0.00 | 0.00 | 0.00 | 81 | 1018.0 |
| 20260507233144 | 46 | 350 | 3.5 | 0.0 | 0.00 | 0.00 | 0.00 | 81 | 1018.0 |
| 20260507231955 | 46 | 350 | 3.5 | 0.0 | 0.00 | 0.00 | 0.00 | 81 | 1018.0 |
| 20260507230811 | 46 | 350 | 3.5 | 0.0 | 0.00 | 0.00 | 0.00 | 81 | 1018.0 |
| 20260507225634 | 45 | 340 | 5.2 | 0.0 | 0.00 | 0.00 | 0.00 | 81 | 1018.0 |
| 20260507224504 | 45 | 340 | 5.2 | 0.0 | 0.00 | 0.00 | 0.00 | 81 | 1018.0 |
| 20260507223322 | 45 | 330 | 3.5 | 0.0 | 0.00 | 0.00 | 0.00 | 87 | 1018.0 |
| 20260507222143 | 45 | 330 | 3.5 | 0.0 | 0.00 | 0.00 | 0.00 | 87 | 1018.0 |
| 20260507221011 | 45 | 330 | 3.5 | 0.0 | 0.00 | 0.00 | 0.00 | 87 | 1018.0 |
| 20260507215824 | 45 | 340 | 5.2 | 0.0 | 0.00 | 0.00 | 0.00 | 87 | 1018.0 |
| 20260507214621 | 45 | 340 | 5.2 | 0.0 | 0.00 | 0.00 | 0.00 | 87 | 1018.0 |
| 20260507213434 | 45 | 340 | 7.0 | 0.0 | 0.00 | 0.00 | 0.00 | 87 | 1018.0 |
| 20260507212252 | 45 | 340 | 7.0 | 0.0 | 0.00 | 0.00 | 0.00 | 87 | 1018.0 |
| 20260507211113 | 45 | 340 | 7.0 | 0.0 | 0.00 | 0.00 | 0.00 | 87 | 1018.0 |
| 20260507205940 | 45 | 350 | 5.2 | 0.0 | 0.00 | 0.00 | 0.00 | 81 | 1018.0 |
| 20260507204751 | 45 | 350 | 5.2 | 0.0 | 0.00 | 0.00 | 0.00 | 81 | 1018.0 |
| 20260507203612 | 45 | 340 | 5.2 | 0.0 | 0.00 | 0.00 | 0.00 | 81 | 1018.0 |
| 20260507202254 | 45 | 340 | 5.2 | 0.0 | 0.00 | 0.00 | 0.00 | 81 | 1018.0 |
| 20260507201118 | 45 | 340 | 5.2 | 0.0 | 0.00 | 0.00 | 0.00 | 81 | 1018.0 |
| 20260507195922 | 45 | 350 | 3.5 | 0.0 | 0.00 | 0.00 | 0.00 | 81 | 1017.0 |
| 20260507194611 | 45 | 350 | 3.5 | 0.0 | 0.00 | 0.00 | 0.00 | 81 | 1017.0 |
| 20260507193250 | 45 | 340 | 7.0 | 0.0 | 0.00 | 0.00 | 0.00 | 81 | 1017.0 |
| 20260507192104 | 45 | 340 | 7.0 | 0.0 | 0.00 | 0.00 | 0.00 | 81 | 1017.0 |
| 20260507190913 | 45 | 340 | 7.0 | 0.0 | 0.00 | 0.00 | 0.00 | 81 | 1017.0 |
| 20260507185738 | 45 | 340 | 5.2 | 0.0 | 0.00 | 0.00 | 0.00 | 81 | 1017.0 |
| 20260507184552 | 45 | 340 | 5.2 | 0.0 | 0.00 | 0.00 | 0.00 | 81 | 1017.0 |
| 20260507183408 | 46 | 330 | 5.2 | 0.0 | 0.00 | 0.00 | 0.00 | 76 | 1016.0 |
| 20260507182215 | 46 | 330 | 5.2 | 0.0 | 0.00 | 0.00 | 0.00 | 76 | 1016.0 |
| 20260507180849 | 46 | 330 | 5.2 | 0.0 | 0.00 | 0.00 | 0.00 | 76 | 1016.0 |
| 20260507175709 | 46 | 340 | 7.0 | 0.0 | 0.00 | 0.00 | 0.00 | 76 | 1016.0 |
| 20260507174524 | 46 | 340 | 7.0 | 0.0 | 0.00 | 0.00 | 0.00 | 76 | 1016.0 |
| 20260507173345 | 46 | 340 | 5.2 | 0.0 | 0.00 | 0.00 | 0.00 | 76 | 1016.0 |
| 20260507172209 | 46 | 340 | 5.2 | 0.0 | 0.00 | 0.00 | 0.00 | 76 | 1016.0 |
| 20260507171016 | 46 | 340 | 5.2 | 0.0 | 0.00 | 0.00 | 0.00 | 76 | 1016.0 |
| 20260507165506 | 46 | 350 | 7.0 | 0.0 | 0.00 | 0.00 | 0.00 | 76 | 1016.0 |
| 20260507164323 | 46 | 350 | 7.0 | 0.0 | 0.00 | 0.00 | 0.00 | 76 | 1016.0 |
| 20260507162955 | 46 | 360 | 8.7 | 0.0 | 0.00 | 0.00 | 0.00 | 76 | 1016.0 |
| 20260507161758 | 46 | 360 | 8.7 | 0.0 | 0.00 | 0.00 | 0.00 | 76 | 1016.0 |
| 20260507160624 | 46 | 360 | 8.7 | 0.0 | 0.00 | 0.00 | 0.00 | 76 | 1016.0 |
| 20260507155448 | 46 | 10 | 8.7 | 0.0 | 0.00 | 0.00 | 0.00 | 76 | 1016.0 |
| 20260507154309 | 46 | 10 | 8.7 | 0.0 | 0.00 | 0.00 | 0.00 | 76 | 1016.0 |
| 20260507153122 | 48 | 20 | 8.7 | 0.0 | 0.00 | 0.00 | 0.00 | 71 | 1016.0 |
| 20260507151943 | 48 | 20 | 8.7 | 0.0 | 0.00 | 0.00 | 0.00 | 71 | 1016.0 |
| 20260507150802 | 48 | 20 | 8.7 | 0.0 | 0.00 | 0.00 | 0.00 | 71 | 1016.0 |
| 20260507145619 | 48 | 20 | 10.4 | 0.0 | 0.00 | 0.00 | 0.00 | 76 | 1016.0 |
| 20260507144449 | 48 | 20 | 10.4 | 0.0 | 0.00 | 0.00 | 0.00 | 76 | 1016.0 |
| 20260507143319 | 48 | 350 | 10.4 | 0.0 | 0.00 | 0.00 | 0.00 | 76 | 1016.0 |
| 20260507142138 | 48 | 350 | 10.4 | 0.0 | 0.00 | 0.00 | 0.00 | 76 | 1016.0 |
| 20260507141002 | 48 | 350 | 10.4 | 0.0 | 0.00 | 0.00 | 0.00 | 76 | 1016.0 |
| 20260507135825 | 48 | 10 | 8.7 | 0.0 | 0.00 | 0.00 | 0.00 | 76 | 1015.0 |
| 20260507134645 | 48 | 10 | 8.7 | 0.0 | 0.00 | 0.00 | 0.00 | 76 | 1015.0 |
| 20260507133507 | 48 | 350 | 10.4 | 0.0 | 0.00 | 0.00 | 0.00 | 76 | 1015.0 |
| 20260507132337 | 48 | 350 | 10.4 | 0.0 | 0.00 | 0.00 | 0.00 | 76 | 1015.0 |
| 20260507131158 | 48 | 350 | 10.4 | 0.0 | 0.00 | 0.00 | 0.00 | 76 | 1015.0 |
| 20260507130008 | 48 | 350 | 10.4 | 0.0 | 0.00 | 0.00 | 0.00 | 76 | 1015.0 |
| 20260507124826 | 48 | 350 | 10.4 | 0.0 | 0.00 | 0.00 | 0.00 | 76 | 1015.0 |
| 20260507123655 | 48 | 350 | 10.4 | 0.0 | 0.00 | 0.00 | 0.00 | 76 | 1015.0 |
| 20260507122510 | 48 | 360 | 10.4 | 0.0 | 0.00 | 0.00 | 0.00 | 76 | 1015.0 |
| 20260507121018 | 48 | 360 | 10.4 | 0.0 | 0.00 | 0.00 | 0.00 | 76 | 1015.0 |
| 20260507115833 | 48 | 330 | 12.2 | 0.0 | 0.00 | 0.00 | 0.00 | 76 | 1014.0 |
| 20260507114656 | 48 | 330 | 12.2 | 0.0 | 0.00 | 0.00 | 0.00 | 76 | 1014.0 |
| 20260507113327 | 50 | 10 | 12.2 | 0.0 | 0.00 | 0.00 | 0.00 | 71 | 1014.0 |
| 20260507112154 | 50 | 10 | 12.2 | 0.0 | 0.00 | 0.00 | 0.00 | 71 | 1014.0 |
| 20260507110819 | 50 | 10 | 12.2 | 0.0 | 0.00 | 0.00 | 0.00 | 71 | 1014.0 |
| 20260507105642 | 48 | 350 | 12.2 | 0.0 | 0.00 | 0.00 | 0.00 | 76 | 1014.0 |
| 20260507104504 | 48 | 350 | 12.2 | 0.0 | 0.00 | 0.00 | 0.00 | 76 | 1014.0 |
| 20260507103133 | 48 | 360 | 13.9 | 0.0 | 0.00 | 0.00 | 0.00 | 81 | 1013.0 |
| 20260507101957 | 48 | 360 | 13.9 | 0.0 | 0.00 | 0.00 | 0.00 | 81 | 1013.0 |
| 20260507100817 | 48 | 360 | 13.9 | 0.0 | 0.00 | 0.00 | 0.00 | 81 | 1013.0 |
| 20260507095646 | 48 | 360 | 13.9 | 0.0 | 0.00 | 0.00 | 0.00 | 81 | 1013.0 |
| 20260507094509 | 48 | 360 | 13.9 | 0.0 | 0.00 | 0.00 | 0.00 | 81 | 1013.0 |
| 20260507093335 | 46 | 350 | 10.4 | 0.0 | 0.00 | 0.00 | 0.00 | 81 | 1013.0 |
| 20260507092155 | 46 | 350 | 10.4 | 0.0 | 0.00 | 0.00 | 0.00 | 81 | 1013.0 |
| 20260507090206 | 46 | 350 | 10.4 | 0.0 | 0.00 | 0.00 | 0.00 | 81 | 1013.0 |
| 20260507084820 | 46 | 350 | 10.4 | 0.0 | 0.00 | 0.00 | 0.00 | 81 | 1013.0 |
| 20260507083023 | 45 | 10 | 8.7 | 0.0 | 0.00 | 0.00 | 0.00 | 87 | 1012.0 |
| 20260507081655 | 45 | 10 | 8.7 | 0.0 | 0.00 | 0.00 | 0.00 | 87 | 1012.0 |
| 20260507080517 | 45 | 10 | 8.7 | 0.0 | 0.00 | 0.00 | 0.00 | 87 | 1012.0 |
| 20260507075339 | 45 | 10 | 8.7 | 0.0 | 0.00 | 0.00 | 0.00 | 87 | 1012.0 |
| 20260507073851 | 45 | 10 | 8.7 | 0.0 | 0.00 | 0.00 | 0.00 | 87 | 1012.0 |
| 20260507072714 | 45 | 10 | 8.7 | 0.0 | 0.00 | 0.00 | 0.00 | 87 | 1012.0 |
| 20260507071358 | 45 | 10 | 8.7 | 0.0 | 0.00 | 0.00 | 0.00 | 87 | 1012.0 |
| 20260507070216 | 45 | 10 | 8.7 | 0.0 | 0.00 | 0.00 | 0.00 | 87 | 1012.0 |
| 20260507064710 | 45 | 10 | 8.7 | 0.0 | 0.00 | 0.00 | 0.00 | 87 | 1012.0 |
| 20260507063517 | 45 | 10 | 8.7 | 0.0 | 0.00 | 0.00 | 0.00 | 87 | 1012.0 |
| 20260507062337 | 45 | 10 | 8.7 | 0.0 | 0.00 | 0.00 | 0.00 | 87 | 1012.0 |
| 20260507061026 | 45 | 10 | 8.7 | 0.0 | 0.00 | 0.00 | 0.00 | 87 | 1012.0 |
| 20260507055856 | 45 | 10 | 7.0 | 0.0 | 0.00 | 0.00 | 0.00 | 87 | 1011.0 |
| 20260507054715 | 45 | 10 | 7.0 | 0.0 | 0.00 | 0.00 | 0.00 | 87 | 1011.0 |